Location: Red Shale Campground
(45.5700°N, 106.1600°W)
Time: 03:56:46
(UTC-06:00)

Daily predictions for brighter satellites

Satellite Brightness Start Highest point End
(mag) Time Altitude Azimuth Time Altitude Azimuth Time Altitude Azimuth
H-2A R/B 3.2 00:02:48 10° NNE 00:06:42 37° E 00:07:11 36° ESE
Meteor 1-26 Rocket 4.4 00:01:55 10° N 00:07:29 64° ENE 00:09:47 35° SE
COS B Rocket 3.1 00:04:38 10° N 00:08:15 89° W 00:08:54 60° S
Cosmos 2221 Rocket 3.6 00:04:58 10° N 00:09:34 89° E 00:10:51 48° S
Cosmos 2297 Rocket 2.1 00:07:31 34° S 00:10:00 74° ESE 00:15:41 10° NNE
Cosmos 1703 Rocket 3.5 00:08:43 10° N 00:13:05 79° W 00:14:10 50° S
Cosmos 1709 Rocket 4.0 00:12:07 30° SSW 00:15:19 77° W 00:21:28 10° N
CZ-4C R/B 4.2 00:09:21 10° NNW 00:15:24 33° NE 00:22:01 10° E
Cosmos 2219 Rocket 3.3 00:13:12 10° NW 00:18:02 31° WSW 00:20:07 24° SW
Okean 1-7 3.0 00:13:57 10° N 00:18:15 73° E 00:19:09 53° SSE
GEOS 3 Rocket 3.6 00:16:47 40° SSE 00:18:38 69° SW 00:23:50 10° NW
CZ-2C R/B 4.0 00:18:16 10° NE 00:22:25 23° E 00:23:38 21° ESE
COSMOS 2455 2.8 00:16:36 10° NNW 00:22:40 87° WSW 00:25:13 37° SSE
H-2A R/B 4.3 00:21:57 10° SW 00:25:10 17° W 00:28:33 10° NW
ATLAS 2AS CENTAUR R/B 2.9 00:19:58 22° SSW 00:25:21 81° SE 00:33:29 10° NE
Meteor 2-10 Rocket 4.4 00:21:15 10° N 00:26:31 43° ENE 00:28:58 28° SE
Cosmos 389 Rocket 2.3 00:25:55 10° N 00:29:32 85° E 00:29:41 81° SE
Cosmos 2181 Rocket 4.3 00:26:30 10° NNW 00:32:44 59° W 00:35:40 32° SSW
Cosmos 1269 Rocket 4.3 00:29:52 10° NNW 00:35:05 57° WSW 00:36:40 41° SSW
Cosmos 1933 4.2 00:31:35 10° NNW 00:35:23 38° W 00:36:07 35° WSW
Geosat 4.4 00:31:29 10° NE 00:36:20 46° ESE 00:37:15 41° SE
Helios 1A Rocket 3.5 00:33:58 10° NNE 00:37:57 42° E 00:38:19 41° ESE
MOS 1-B Rocket 4.3 00:38:15 29° SE 00:40:59 54° ENE 00:46:26 10° N
Meteor 2-3 Rocket 3.8 00:39:57 41° S 00:42:00 72° E 00:47:43 10° NNE
Cosmos 2237 Rocket 3.4 00:40:24 10° NW 00:45:12 29° WSW 00:46:53 24° SW
ATLAS 3B R/B 2.7 00:39:47 10° NW 00:46:45 66° WSW 00:49:27 37° S
Cosmos 1892 3.2 00:46:48 43° E 00:46:54 43° E 00:50:31 10° NNE
Cosmos 2184 Rocket 3.9 00:44:41 39° S 00:47:13 83° E 00:53:26 10° N
USA 238 DEB 3.9 00:41:46 10° NW 00:48:50 72° NE 00:53:37 22° SE
USA 238 3.9 00:41:52 10° NW 00:48:55 71° NE 00:53:45 22° SE
CZ-4B R/B 1.7 00:51:29 59° W 00:51:29 59° W 00:54:52 10° NNW
SL-08 ROCKET BODY 4.4 00:52:31 39° S 00:54:59 83° E 01:01:11 10° N
Cosmos 1689 Rocket 3.0 00:59:16 46° W 00:59:16 46° W 01:02:11 10° NNW
Cosmos 1782 3.4 00:55:09 10° N 00:59:00 46° ENE 00:59:38 42° ESE
NOSS 2-3 (E) 4.0 00:58:42 48° S 01:00:03 69° ESE 01:05:47 10° NE
BREEZE-M TANK 2.7 00:56:56 10° W 01:05:42 88° S 01:08:40 10° E
Aureole 2 Rocket 2.6 01:02:40 10° NNW 01:05:16 61° NNW 01:05:16 61° NNW
Cosmos 1125 Rocket 4.3 01:03:09 25° SW 01:05:56 47° WNW 01:11:05 10° NNE
Sich 1 Rocket 4.3 01:05:17 37° ESE 01:06:07 41° E 01:10:22 10° NNE
Cosmos 494 Rocket 4.3 01:02:29 10° NNW 01:07:43 63° ENE 01:09:53 34° SE
Cosmos 1340 Rocket 2.6 01:08:03 69° SE 01:08:21 74° E 01:12:17 10° NNE
Cosmos 1825 3.8 01:17:09 23° E 01:17:34 23° E 01:20:37 10° NE
USA 234 3.7 01:11:25 10° ESE 01:17:49 61° NNE 01:24:15 10° NW
SeaSat 1 4.3 01:18:03 16° WSW 01:18:33 17° WSW 01:21:41 10° WNW
Cosmos 44 Rocket 3.3 01:17:56 46° SSW 01:19:30 81° ESE 01:24:46 10° NE
BREEZE-M DEB (TANK) 2.5 01:19:51 40° W 01:20:44 65° NNW 01:26:46 10° ENE
ALOS 2 3.8 01:21:24 27° WSW 01:21:59 28° W 01:25:46 10° NW
Coronas F rocket 2.6 01:24:35 40° N 01:24:35 40° N 01:26:28 10° N
Cosmos 1733 Rocket 3.1 01:23:10 55° SSW 01:24:04 77° W 01:28:33 10° N
Cosmos 1408 4.1 01:24:16 26° ESE 01:24:41 27° E 01:27:54 10° NNE
Cosmos 2227 Rocket 4.1 01:22:22 10° WSW 01:26:56 25° NW 01:31:33 10° N
NOSS 2-3 (C) 4.1 01:25:04 36° SW 01:27:13 78° NW 01:33:08 10° NE
Lacrosse 4 Rocket 2.8 01:23:37 10° NW 01:27:15 27° WSW 01:27:15 27° WSW
Cosmos 2333 Rocket 4.5 01:28:54 10° W 01:29:45 10° W 01:30:34 10° WSW
Cosmos 2263 Rocket 3.5 01:33:39 23° SE 01:35:27 27° ESE 01:40:09 10° NE
Cosmos 1378 Rocket 3.7 01:31:35 10° N 01:35:59 67° E 01:37:04 47° SE
SL-16 R/B 3.5 01:31:50 10° NW 01:36:20 25° WSW 01:37:24 23° WSW
Meteor 1-27 Rocket 3.8 01:31:24 10° N 01:37:19 81° E 01:39:46 37° SSE
Okean 3 4.0 01:34:53 10° N 01:39:07 54° ENE 01:40:22 39° SE
Cosmos 2227 4.2 01:36:57 39° SSW 01:39:10 82° WNW 01:44:54 10° NNE
ERBS 4.1 01:37:14 18° W 01:39:13 31° NNW 01:42:23 10° NE
Cosmos 1356 Rocket 3.3 01:39:15 59° SW 01:39:49 70° WNW 01:43:53 10° N
H-2A R/B 4.4 01:38:49 10° NNW 01:42:05 23° WNW 01:43:49 18° W
Cosmos 1862 3.5 01:41:49 50° SE 01:42:24 57° E 01:46:22 10° NNE
NOSS 3-4 (A) 4.3 01:44:56 30° SSE 01:47:05 38° ESE 01:53:04 10° NE
NOSS 3-4 (C) 4.3 01:45:02 30° SSE 01:47:11 38° ESE 01:53:08 10° NE
NOSS 3-2 (A) 4.1 01:40:06 10° NW 01:47:30 76° NE 01:55:31 10° SE
Okean 2 Rocket 3.8 01:47:32 35° SE 01:48:49 45° E 01:53:07 10° NNE
Nadezhda 3 Rocket 4.2 01:45:28 10° NNW 01:51:32 57° W 01:54:00 35° SSW
Cosmos 1238 Rocket 2.6 01:47:18 10° NNW 01:51:37 70° W 01:52:02 63° SW
Cosmos 2297 Rocket 4.2 01:50:21 10° W 01:54:40 22° NW 01:59:01 10° N
CZ-2C R/B 3.3 01:52:39 38° S 01:54:52 68° WSW 02:00:31 10° NNW
Cosmos 1782 Rocket 3.6 01:57:08 47° SSE 01:58:13 67° E 02:02:35 10° NNE
Cosmos 1943 3.1 01:56:46 10° NNW 02:02:30 86° WSW 02:05:22 31° SSE
Cosmos 1606 2.9 01:59:06 10° NNW 02:02:51 53° W 02:03:11 51° WSW
CZ-2C R/B 3.1 01:57:56 10° N 02:02:59 49° WNW 02:05:10 30° SW
CZ-4C R/B 2.8 01:57:38 10° NW 02:04:41 82° SW 02:11:13 16° SSE
Cosmos 1727 Rocket 4.3 02:01:14 10° N 02:07:26 61° ENE 02:11:24 23° SSE
PSLV R/B 3.8 02:12:52 10° NNE 02:17:04 59° E 02:18:20 40° SSE
ATLAS 2AS CENTAUR R/B 4.4 02:10:11 10° W 02:17:15 36° NNW 02:24:39 10° NNE
Cosmos 1867 3.7 02:13:17 10° NNW 02:18:48 76° NE 02:23:54 12° SE
Cosmos 1975 Rocket 3.1 02:14:49 10° NNW 02:19:12 65° W 02:20:21 45° SSW
Cosmos 1242 Rocket 3.5 02:16:34 10° N 02:19:54 41° ENE 02:21:11 29° SE
BREEZE-M DEB (TANK) 4.1 02:13:30 10° WNW 02:25:20 54° SW 02:28:18 19° SE
Cosmos 921 Rocket 4.0 02:28:04 27° WSW 02:29:29 36° WNW 02:33:24 10° N
Cosmos 1607 4.4 02:24:50 10° NW 02:30:31 40° WSW 02:32:34 31° SSW
Cosmos 1536 Rocket 4.1 02:26:44 10° N 02:31:02 55° ENE 02:33:30 24° SSE
Cosmos 44 3.9 02:31:46 26° WSW 02:34:41 60° NW 02:40:07 10° NNE
ATLAS 3B R/B 4.5 02:33:48 10° W 02:36:00 12° WSW 02:36:40 12° WSW
NPP 4.0 02:39:51 10° NNE 02:45:13 61° ESE 02:48:21 25° S
Cosmos 2151 Rocket 3.6 02:45:11 34° S 02:47:06 82° E 02:51:35 10° N
Cosmos 1812 3.7 02:43:23 10° N 02:47:08 43° ENE 02:49:49 17° SE
Cosmos 1184 Rocket 2.8 02:46:42 51° SW 02:47:24 72° WNW 02:50:47 10° N
Abrixas rocket 3.5 02:48:13 27° SE 02:48:13 27° SE 02:50:54 10° E
Iridium 4 Rocket 3.2 02:45:10 10° N 02:49:44 85° W 02:52:19 28° S
RESURS DK-1 2.5 02:50:29 35° S 02:52:05 67° ESE 02:56:13 10° NNE
ERS-2 2.7 02:49:06 10° NNE 02:52:44 50° E 02:54:19 29° SSE
Cosmos 1825 3.6 02:52:05 22° W 02:53:07 25° WNW 02:56:20 10° NNW
ARIANE 5 R/B 4.2 02:50:13 10° NE 02:54:21 25° E 02:58:26 10° SSE
SL-16 R/B 3.9 02:48:44 10° SE 02:54:24 38° ENE 03:00:04 10° N
Cosmos 1408 4.3 02:58:48 19° W 02:59:53 22° WNW 03:02:53 10° NNW
USA 234 3.4 02:54:38 10° SSE 03:00:55 50° SW 03:07:15 10° WNW
CBERS-1 4.1 02:57:20 10° NNE 03:02:29 72° ESE 03:05:44 23° S
Okean 1 Rocket 4.0 03:00:25 18° SSE 03:03:26 44° E 03:07:40 10° NNE
Elektron 3 4.2 03:03:12 10° NW 03:06:14 66° SW 03:11:15 10° SSE
CZ-2D R/B 3.8 03:05:31 10° NE 03:10:09 28° E 03:14:47 10° SSE
GP-B 3.2 03:07:06 10° N 03:11:34 77° E 03:14:33 21° S
ATLAS 2A CENTAUR R/B 4.2 03:09:15 19° S 03:12:28 23° SSE 03:28:40 10° ESE
NOSS 3-2 (C) 4.2 03:06:17 10° NW 03:13:25 48° WSW 03:21:01 10° S
SL-24 DEB 4.2 03:09:27 10° N 03:14:05 82° W 03:16:59 23° S
CENTAUR R/B 3.4 03:07:42 10° NW 03:15:23 69° NE 03:23:37 10° SE
Cosmos 1821 Rocket 4.4 03:11:16 14° S 03:16:43 64° E 03:23:03 10° NNE
Cosmos 1844 Rocket 3.7 03:13:11 15° S 03:17:29 40° ESE 03:22:44 10° NE
Cosmos 2263 Rocket 2.7 03:15:21 20° SW 03:19:04 51° WNW 03:24:38 10° NNE
Meteor 1-25 Rocket 4.2 03:17:41 21° SSW 03:21:34 80° W 03:27:24 10° N
COSMOS 2406 3.2 03:16:07 10° NNW 03:21:55 79° WSW 03:27:40 10° SSE
Cosmos 1190 Rocket 4.0 03:18:07 10° NNW 03:23:17 60° WSW 03:27:35 15° S
SL-08 R/B 3.7 03:20:41 22° SSW 03:23:42 50° W 03:28:31 10° NNW
Tiangong 1 2.5 03:31:28 21° SSE 03:31:28 21° SSE 03:33:02 10° SE
IRS-1C 4.1 03:25:19 10° NNE 03:30:41 81° WNW 03:34:41 18° SSW
Cosmos 2056 Rocket 3.8 03:29:04 21° SW 03:32:36 59° WNW 03:37:49 10° NNE
Cosmos 2278 Rocket 3.8 03:29:29 10° SSE 03:34:11 27° ESE 03:38:54 10° NE
Cosmos 1140 Rocket 4.2 03:29:14 10° NNW 03:34:19 55° ENE 03:39:20 10° SE
Spot 4 Rocket 4.1 03:30:22 10° NNE 03:35:33 83° ESE 03:39:46 16° SSW
UNK 4.3 03:32:08 10° SSE 03:36:40 60° ENE 03:41:16 10° N
Cosmos 1025 Rocket 3.8 03:32:40 10° N 03:36:53 53° ENE 03:41:05 10° SSE
NOSS 3-4 (A) 4.2 03:32:22 14° WSW 03:37:51 50° NW 03:44:20 10° NNE
NOSS 3-4 (C) 4.2 03:32:28 14° WSW 03:37:55 51° NW 03:44:26 10° NNE
OPS 6431 4.5 03:37:40 10° NW 03:40:42 59° SW 03:43:37 10° SSE
Cosmos 407 Rocket 3.7 03:35:59 10° NNW 03:40:59 52° WSW 03:45:57 10° S
AQUA 4.3 03:37:00 10° N 03:41:36 49° WNW 03:44:56 18° SW
ATLAS 5 CENTAUR R/B 3.7 03:36:56 10° NNW 03:42:31 44° NE 03:48:30 10° ESE
Cosmos 1536 3.9 03:40:10 10° SSE 03:44:02 44° E 03:47:55 10° NNE
SL-27 R/B 2.7 03:40:57 10° NNW 03:44:30 50° WSW 03:47:30 14° S
Cosmos 676 Rocket 4.0 03:41:23 10° NNW 03:46:32 62° WSW 03:51:37 10° S
USA 161 1.8 03:47:19 22° SSW 03:48:50 45° W 03:51:39 10° NNW
Meteor 2-4 Rocket 4.3 03:43:53 10° N 03:49:16 57° ENE 03:54:30 10° SSE
Cosmos 1809 Rocket 4.5 03:44:15 14° SSW 03:49:33 76° W 03:55:44 10° N
CZ-4C R/B 4.1 03:47:39 10° WNW 03:52:33 20° WSW 03:56:17 14° SW
UNKNOWN OBJECT B 4.0 03:49:58 10° NNE 03:53:51 42° E 03:57:45 10° S
IRS-1D 3.6 03:51:20 10° NNE 03:56:30 82° ESE 04:01:28 10° SSW
NOSS 2-2 (C) 4.5 03:57:16 12° S 04:00:54 41° ESE 04:05:25 10° NE
Resurs 1-4 Rocket 2.3 03:56:20 10° NNE 04:01:41 75° ESE 04:06:59 10° S
Gbstr 26 Del rocket 3.5 03:59:17 15° SSW 04:02:07 37° SE 04:05:35 10° ENE
Cosmos 1300 Rocket 4.3 04:00:48 15° SW 04:04:00 37° WNW 04:08:04 10° N
Meteor 2-16 Rocket 4.5 04:00:00 10° S 04:06:09 83° W 04:12:21 10° N
Meteor 1-19 Rocket 4.3 04:04:46 10° NNW 04:10:32 72° W 04:16:21 10° S
Cosmos 1892 Rocket 3.5 04:10:24 10° N 04:14:47 90° ENE 04:19:08 10° S
Cosmos 1954 Rocket 4.3 04:10:12 10° NNW 04:15:07 45° WSW 04:20:00 10° S
Cosmos 1633 2.5 04:11:58 10° S 04:15:34 87° E 04:19:13 10° N
MOS 1-B 4.4 04:10:38 10° NNE 04:16:29 85° ESE 04:22:18 10° SSW
EO 1 Del DPAF 3.6 04:12:51 10° S 04:16:37 46° W 04:20:23 10° NNW
Timation 2 Rocket 4.2 04:12:34 10° NNW 04:18:49 73° ENE 04:24:49 10° SE
USA 129 2.3 04:17:36 10° SSE 04:19:42 58° ENE 04:21:47 10° N
Meteor 1-11 Rocket 4.0 04:17:57 10° SSW 04:23:49 61° WNW 04:29:45 10° N
Abrixas rocket 2.4 04:21:31 10° WSW 04:24:53 76° NNW 04:28:15 10° ENE
ERS-2 4.4 04:24:09 10° NNW 04:26:08 14° WNW 04:28:08 10° W
Cosmos 1447 Rocket 4.5 04:20:35 10° N 04:26:47 82° W 04:32:54 10° S
Cosmos 1356 3.5 04:23:27 10° S 04:27:00 86° E 04:30:34 10° NNE
NOSS 2-2 (E) 3.8 04:22:54 10° SSW 04:27:08 78° SE 04:32:12 10° NE
Cosmos 1400 Rocket 2.7 04:26:10 10° SSW 04:30:04 85° WNW 04:34:01 10° N
COSMOS 2487 2.8 04:29:15 10° NNW 04:32:45 47° WSW 04:36:15 10° S
ARIANE 5 R/B 3.1 04:28:56 10° N 04:33:38 42° WNW 04:38:20 10° SW
CZ-2C R/B 3.9 04:29:53 10° SSE 04:34:38 87° WSW 04:39:27 10° NNW
MTI 4.4 04:33:03 10° S 04:36:11 38° W 04:39:19 10° NNW
CZ-4B R/B 4.2 04:32:39 10° NNE 04:37:03 46° E 04:41:23 10° S
Cosmos 614 Rocket 4.0 04:32:29 10° NNW 04:37:39 67° WSW 04:42:43 10° S
SL-16 R/B 3.1 04:32:09 10° SSW 04:37:58 40° W 04:43:48 10° NNW
Cosmos 1833 Rocket 4.0 04:33:16 10° NNW 04:38:41 46° ENE 04:44:04 10° SE
Cosmos 1452 Rocket 4.4 04:34:07 10° SW 04:38:58 37° WNW 04:43:52 10° N
Okean O Rocket 1.8 04:34:38 10° NNE 04:39:00 74° ESE 04:43:20 10° S
